Weather in Kanash

Russia / Kaliningrad Oblast     54°57′10″N   21°49′35″E
temp.,
°C
wind,
m/s
gust,
m/s
humid.,
%
clouds,
%
prec.,
mm/h
press.,
hPa
HPBL,
m
21 april, wed
wed2123:00+7wnw227413 0.0 101123
02:00+6w348382 0.0 101051
05:00+4wnw36786 0.0 100992
08:00+9wnw47635 0.0 1009282
11:00+13w46465 0.0 1008940
14:00+13w67455 0.0 10081022
17:00+12w59485 0.0 1007753
20:00+7wsw4972100 0.0 1008295
22 april, thu
thu2223:00+5wsw411875 0.0 1008379
02:00+6sw4973100 0.0 1007620
05:00+3sw4118136 0.0 1007405
08:00+5sw7107092 0.0 10071010
11:00+7sw81268100 0.3 10071642
14:00+5wsw7127989 2.0 10081272
17:00+5w8118498 0.4 10091044
20:00+3w5991100 0.9 1009876
23 april, fri
fri2323:00+3wsw61196100 0.6 1009946
02:00+2w61197100 1.3 1009771
05:00+2wnw7129399 0.6 1011870
08:00+4wnw7117632 1.3 10121260
11:00+5wnw8116361 0.8 10131657
14:00+7wnw895287 1.0 10151902
17:00+5wnw795882 0.0 10161603
20:00+2wnw510745 0.1 1017418
24 april, sat
sat2423:00+3wnw6117974 0.1 1017793
02:00+3wnw5116899 0.1 1017677
05:00+3wnw496671 0.0 1017315
08:00+5wnw610555 0.0 10171625
11:00+6wnw912505 0.2 10171905
14:00+6wnw9124856 0.3 10182228
17:00+5wnw8115894 0.1 10181748
20:00+2nw7139099 0.1 10191014
25 april, sun
sun2523:00+2nw61274100 0.1 1019906
02:00+1nw612715 0.2 1019666
05:00+2nw512655 0.0 1019515
08:00+4nw71067100 0.3 10191515
11:00+6wnw71053100 0.8 10182054
14:00+6nw81049100 0.9 10182116
17:00+4nw7105499 0.1 10191709
20:00+1wnw36705 0.2 1019135